GEFSSE_con_cape1000_012.txt.gz
Probability
87 90 100 100 100 100 100 100 100 100 100 100 100 100 100 100 100 100 100 100 100 100 100 100 100 100 100 100 97 100 100 100 97 97 97 100 100 100 100 100 100 100 100
87 97 100 100 100 100 100 100 100 100 100 100 100 97 94 94 94 94 97 100 100 100 100 100 100 100 100 100 100 90 87 94 90 97 94 97 100 100 100 100 100 100 100
97 97 100 100 100 100 100 100 100 100 100 100 100 94 94 77 77 87 90 94 100 100 100 100 100 100 100 100 94 90 87 77 84 84 94 90 97 100 100 100 100 100 100
97 94 100 100 100 100 100 100 100 100 100 100 97 94 90 74 87 97 90 97 97 97 97 100 100 97 97 100 97 100 100 84 81 81 81 87 71 100 100 100 100 100 100
94 87 100 100 100 100 100 100 100 100 100 100 100 90 87 84 94 87 90 94 94 97 100 100 100 100 97 100 100 100 100 81 77 77 65 74 61 90 97 94 97 100 94
97 97 100 100 100 100 100 100 100 100 100 100 97 77 81 90 81 87 84 84 100 100 100 100 100 100 97 97 100 97 100 84 52 74 84 94 87 97 97 87 90 100 97
97 97 100 100 100 100 100 100 100 100 100 100 100 87 90 81 68 84 97 84 81 68 81 90 97 94 100 100 100 100 97 81 90 68 81 100 90 97 87 68 90 90 87
94 100 100 100 100 100 100 100 100 100 100 100 100 100 100 81 68 84 90 90 77 45 42 42 48 65 90 100 100 97 65 61 71 52 90 58 100 100 94 90 94 81 84
42 100 100 100 100 100 100 100 100 100 100 100 100 100 100 84 87 90 90 90 74 32 0 0 0 23 45 87 90 77 55 48 39 26 45 68 100 100 100 97 94 90 84
10 87 97 87 90 97 100 100 100 100 100 100 100 100 100 94 81 90 94 94 61 6 0 0 0 0 6 29 35 29 16 0 3 16 23 81 100 100 97 100 100 94 90
0 42 100 90 90 84 58 100 100 100 100 100 100 100 100 65 45 84 87 84 74 6 0 0 0 0 0 10 26 29 6 0 0 6 6 84 77 52 81 84 81 81 100
0 0 35 77 97 97 81 68 61 84 100 94 97 100 100 81 6 3 55 74 74 32 3 0 0 0 0 0 0 19 0 0 0 0 32 100 48 23 45 61 35 42 81
0 0 6 42 90 100 100 87 77 61 65 52 97 100 84 61 0 0 0 39 45 23 0 0 0 0 0 0 0 0 0 0 0 13 35 100 48 45 61 84 48 19 29
0 0 10 13 77 97 97 94 97 87 84 81 94 87 81 87 16 0 0 0 23 0 0 0 0 0 0 0 0 0 0 0 0 23 19 94 42 48 68 94 77 61 32
0 0 0 6 45 94 100 100 74 87 58 71 90 71 77 68 32 3 0 3 16 0 0 0 0 0 0 0 0 0 0 0 0 35 0 84 61 39 74 100 100 94 77
0 0 0 0 16 61 100 100 77 77 94 39 35 35 45 19 16 3 0 0 0 0 0 0 0 0 0 0 0 0 0 0 3 26 45 13 97 94 84 94 100 100 94
0 0 0 10 10 13 29 48 45 90 71 55 13 6 6 0 0 0 0 0 0 0 0 0 0 0 0 0 0 0 0 0 0 0 32 55 16 90 100 100 100 100 100
0 0 0 10 10 6 6 23 35 58 74 65 32 10 0 0 0 0 0 0 0 0 0 0 0 0 0 0 0 0 0 0 0 0 0 32 45 26 55 97 100 100 100
0 0 0 6 16 16 10 16 35 39 90 68 42 16 0 0 0 0 10 3 0 0 0 0 0 0 0 0 0 0 0 0 0 0 0 0 19 32 6 52 100 100 100
0 6 0 6 32 23 45 23 42 45 77 74 68 65 6 3 0 32 35 3 3 0 0 0 0 0 0 0 0 0 0 0 0 0 0 0 0 3 10 16 58 97 100
3 3 13 6 16 52 94 90 87 94 97 90 90 77 58 29 23 58 39 23 19 0 0 0 3 0 0 0 0 0 0 0 0 0 0 0 0 0 0 16 61 68 100
13 16 23 13 13 45 94 100 100 94 97 97 97 100 77 26 23 42 26 23 13 0 0 0 0 0 0 0 0 0 0 0 0 0 0 0 0 0 0 0 35 65 71
13 13 32 55 52 55 74 100 100 100 100 97 94 90 81 48 29 29 10 10 6 3 0 0 0 0 0 0 0 0 0 0 0 0 0 0 0 0 0 0 0 39 61
3 6 19 55 77 74 71 90 97 94 77 81 71 74 71 48 32 23 23 6 0 0 0 0 0 13 0 0 0 0 0 0 0 0 0 0 0 0 0 0 0 0 6
3 3 13 39 65 77 94 90 94 71 58 55 45 35 23 19 19 23 23 3 0 0 0 0 0 0 0 0 0 0 0 0 0 0 0 0 0 0 0 0 0 0 0
0 0 3 13 26 42 74 77 71 39 23 16 16 13 10 6 10 6 10 0 0 0 0 0 0 0 0 0 0 0 0 0 0 0 0 0 0 0 0 0 0 0 0

GEFSSE_con_cape1000_018.txt.gz
Probability
10 81 100 100 100 100 100 100 100 100 100 100 100 100 100 100 100 100 100 100 100 100 100 100 100 100 100 100 97 97 97 97 97 100 100 100 100 100 100 100 100 100 100
26 90 100 100 100 100 100 100 100 100 100 100 100 100 97 97 97 100 100 100 100 100 100 100 100 100 100 100 94 94 100 94 90 97 97 90 97 100 100 100 100 100 100
55 97 100 100 100 100 100 100 100 100 100 100 100 97 97 97 97 97 100 100 100 100 100 100 100 100 100 100 100 100 94 97 97 97 90 74 87 100 100 100 100 100 100
71 97 97 100 100 100 100 100 100 100 100 100 100 100 97 97 97 94 100 100 97 97 100 97 100 100 97 97 97 100 100 94 94 90 77 68 74 90 97 97 100 100 100
81 100 100 100 100 100 100 100 100 100 100 100 100 97 94 100 97 100 94 97 97 97 90 94 97 97 100 97 100 100 97 94 94 74 35 39 65 90 94 90 100 100 100
84 97 100 100 100 100 100 100 100 100 100 100 100 97 100 100 100 94 97 94 94 87 84 87 94 94 97 100 100 100 97 81 81 52 32 42 68 90 90 94 100 100 100
77 97 100 100 100 100 100 100 100 100 100 100 97 97 97 94 97 97 94 84 87 81 77 77 81 84 87 100 100 100 100 87 26 32 32 32 74 90 94 97 90 94 97
71 97 100 100 100 100 100 100 100 100 100 100 97 97 100 100 90 94 94 68 52 48 55 48 65 74 90 97 100 90 87 84 68 23 19 58 87 87 94 100 97 90 90
77 94 97 100 100 100 100 100 100 100 100 100 100 97 100 100 94 97 100 74 35 23 16 16 23 35 74 84 87 81 81 52 0 6 19 71 97 97 100 97 97 97 94
87 90 100 100 100 100 100 100 100 100 100 100 100 100 100 100 100 100 100 81 32 3 0 0 0 13 26 52 61 65 55 0 0 0 6 84 100 87 94 97 94 97 97
97 94 100 100 100 100 100 100 100 100 100 100 100 100 100 87 84 100 100 94 55 16 0 0 0 0 3 10 39 55 16 0 0 0 0 87 77 71 77 81 84 87 100
90 87 84 90 77 84 94 100 100 100 100 100 100 100 94 10 16 74 97 100 81 55 23 10 3 0 0 0 0 3 0 0 0 0 3 90 58 52 61 55 39 71 90
87 94 77 61 55 42 45 39 74 71 94 97 97 97 58 0 0 16 13 87 71 65 6 0 0 0 0 0 0 0 0 0 0 0 0 90 48 35 39 45 23 35 61
68 77 90 68 42 23 16 10 19 13 35 65 71 81 48 3 0 0 0 6 6 3 0 0 0 0 0 0 0 0 0 0 0 0 0 87 58 23 29 48 65 26 32
35 65 87 84 61 29 13 3 3 0 6 19 13 35 19 0 0 0 0 0 0 0 0 0 0 0 0 0 0 0 0 0 0 0 0 81 58 23 19 45 71 74 45
0 13 55 65 74 52 16 3 0 0 0 0 6 13 13 0 0 0 0 0 0 0 0 0 0 0 0 0 0 0 0 0 0 0 0 0 23 29 39 68 90 97 87
0 0 0 26 39 52 13 3 3 0 0 0 0 0 0 0 0 0 0 0 0 0 0 0 0 0 0 0 0 0 0 0 0 0 0 0 0 0 23 87 94 100 100
0 0 0 0 16 35 29 10 6 0 0 0 0 0 0 0 0 0 0 0 0 0 0 0 0 0 0 0 0 0 0 0 0 0 0 0 0 0 3 61 87 100 100
0 0 0 0 0 6 19 23 13 10 3 3 0 0 0 0 0 0 0 0 0 0 0 0 0 0 0 0 0 0 0 0 0 0 0 0 0 0 0 0 58 84 97
0 0 0 0 0 0 3 6 6 3 6 6 3 0 0 0 0 0 0 0 0 0 0 0 0 0 0 0 0 0 0 0 0 0 0 0 0 0 0 0 0 26 100
0 0 0 0 0 0 0 6 10 13 10 3 3 3 0 0 0 0 0 0 0 0 0 0 0 0 0 0 0 0 0 0 0 0 0 0 0 0 0 0 0 0 35
0 0 0 0 0 0 0 0 3 3 10 10 6 3 0 0 0 0 0 0 0 0 0 0 0 0 0 0 0 0 0 0 0 0 0 0 0 0 0 0 0 0 0
0 0 0 0 0 0 0 0 3 0 3 0 0 6 3 0 0 0 0 0 0 0 0 0 0 0 0 0 0 0 0 0 0 0 0 0 0 0 0 0 0 0 0
0 0 0 0 0 0 0 0 0 0 0 0 3 6 3 0 0 0 0 0 0 0 0 0 0 0 0 0 0 0 0 0 0 0 0 0 0 0 0 0 0 0 0
0 0 0 0 0 0 0 0 0 0 0 0 0 0 0 0 0 0 0 0 0 0 0 0 0 0 0 0 0 0 0 0 0 0 0 0 0 0 0 0 0 0 0
0 0 0 0 0 0 0 0 0 0 0 0 0 0 0 0 0 0 0 0 0 0 0 0 0 0 0 0 0 0 0 0 0 0 0 0 0 0 0 0 0 0 0

GEFSSE_con_cape1000_024.txt.gz
Probability
0 19 100 100 100 100 100 100 100 100 100 100 100 100 100 100 100 100 100 100 100 100 100 100 100 100 100 100 100 100 100 100 100 100 100 100 100 100 100 100 100 100 100
0 65 100 100 100 100 100 100 100 100 100 100 100 100 100 100 100 100 100 100 100 100 100 100 100 100 100 100 100 100 100 100 100 97 100 100 100 100 100 100 100 100 100
19 84 100 100 100 100 100 100 100 100 100 97 97 97 97 97 97 97 97 100 100 100 97 100 100 100 100 100 100 100 100 97 97 94 87 81 100 100 100 100 100 100 100
61 94 100 100 100 100 100 100 100 100 97 97 97 97 97 94 94 94 97 100 100 97 97 97 100 100 100 100 100 100 100 97 97 77 55 58 84 97 100 100 100 100 100
81 97 100 100 100 100 100 100 100 100 97 87 84 84 84 90 90 87 87 94 87 84 90 94 97 97 94 94 100 100 97 97 94 58 26 39 65 97 97 100 100 100 100
90 94 100 100 100 100 100 100 100 100 94 84 58 84 77 68 77 74 74 77 74 71 74 87 90 97 97 97 100 100 100 97 58 13 13 35 55 90 97 100 100 100 100
87 97 100 100 100 100 100 100 100 100 100 87 74 84 87 81 74 65 61 71 68 61 45 74 87 90 94 100 100 100 100 100 0 3 3 16 58 94 94 97 97 100 100
90 97 100 100 100 100 100 100 100 100 97 94 87 87 84 84 77 68 45 45 52 39 32 39 61 74 94 97 100 94 100 100 32 6 10 39 84 97 90 97 97 90 100
84 97 100 100 100 100 100 100 100 100 100 100 97 94 90 84 90 77 65 35 32 23 16 13 32 35 65 74 84 81 87 94 0 6 16 35 87 94 90 94 94 94 97
68 90 94 100 100 100 100 100 100 100 100 100 100 97 97 94 90 94 87 65 19 13 6 0 0 0 19 52 58 74 71 6 0 0 6 23 90 77 87 94 94 97 97
55 61 81 94 97 97 100 100 100 100 100 100 100 100 100 90 74 90 100 84 45 10 0 0 0 0 0 3 13 39 0 0 0 0 0 29 74 55 65 77 87 97 100
58 58 58 87 90 97 100 100 100 100 100 100 100 100 97 58 16 81 77 94 55 32 16 3 3 0 0 0 0 0 0 0 0 0 0 42 55 35 39 42 55 74 97
58 58 74 84 94 97 100 90 97 100 100 100 100 94 77 23 3 19 6 26 39 58 19 0 0 0 0 0 0 0 0 0 0 0 0 32 58 16 13 26 32 48 74
48 58 74 94 87 81 77 61 65 74 94 90 87 84 45 16 0 0 0 0 0 0 0 0 0 0 0 0 0 0 0 0 0 0 0 3 55 10 0 0 10 13 29
19 26 55 61 65 55 45 32 32 45 65 71 65 61 48 23 0 0 0 0 0 0 0 0 0 0 0 0 0 0 0 0 0 0 0 0 45 26 3 6 13 29 13
0 0 6 55 45 32 29 19 23 16 29 19 35 52 45 29 3 0 0 0 0 0 0 0 0 0 0 0 0 0 0 0 0 0 0 0 0 45 26 19 19 42 55
0 0 0 3 23 19 16 19 19 10 6 6 19 29 32 19 0 0 0 0 0 0 0 0 0 0 0 0 0 0 0 0 0 0 0 0 0 0 6 19 61 84 90
0 0 0 0 0 3 13 16 19 13 6 3 3 3 6 19 3 0 0 0 0 0 0 0 0 0 0 0 0 0 0 0 0 0 0 0 0 0 0 0 19 61 90
0 0 0 0 0 0 0 6 10 16 6 3 3 3 0 6 6 3 0 0 0 0 0 0 0 0 0 0 0 0 0 0 0 0 0 0 0 0 0 0 0 6 52
0 0 0 0 0 0 0 0 6 10 10 3 3 0 0 0 3 3 0 0 0 0 0 0 0 0 0 0 0 0 0 0 0 0 0 0 0 0 0 0 0 0 10
0 0 0 0 0 0 0 0 0 6 16 6 3 6 0 0 0 3 0 0 0 0 0 0 0 0 0 0 0 0 0 0 0 0 0 0 0 0 0 0 0 0 0
0 0 0 0 0 0 0 0 0 0 0 3 10 6 3 0 0 0 0 0 0 0 0 0 0 0 0 0 0 0 0 0 0 0 0 0 0 0 0 0 0 0 0
0 0 0 0 0 0 0 0 0 0 0 0 0 0 6 6 0 0 0 0 0 0 0 0 0 0 0 0 0 0 0 0 0 0 0 0 0 0 0 0 0 0 0
0 0 0 0 0 0 0 0 0 0 0 0 0 0 0 0 3 0 0 0 0 0 0 0 0 0 0 0 0 0 0 0 0 0 0 0 0 0 0 0 0 0 0
0 0 0 0 0 0 0 0 0 0 0 0 0 0 0 0 0 0 0 0 0 0 0 0 0 0 0 0 0 0 0 0 0 0 0 0 0 0 0 0 0 0 0
0 0 0 0 0 0 0 0 0 0 0 0 0 0 0 0 0 0 0 0 0 0 0 0 0 0 0 0 0 0 0 0 0 0 0 0 0 0 0 0 0 0 0

GEFSSE_con_cape1000_030.txt.gz
Probability
61 97 100 100 100 100 100 100 100 100 100 100 100 100 100 97 97 97 97 94 94 97 100 97 100 100 94 97 97 100 100 100 100 100 100 100 100 100 100 100 100 97 97
77 100 100 100 100 100 100 100 100 100 100 100 100 100 100 100 97 94 97 94 97 100 100 100 97 100 100 97 97 97 100 100 100 100 100 100 100 100 100 100 100 100 97
90 100 100 100 100 100 100 100 100 100 100 100 100 100 100 100 90 94 97 100 97 94 94 100 97 100 97 97 97 94 97 97 94 90 100 100 100 100 100 100 100 94 97
84 100 100 100 100 100 100 100 100 100 100 97 97 97 97 97 97 94 94 90 84 90 94 94 97 97 100 97 94 97 97 97 87 84 84 90 84 97 100 100 100 100 94
87 100 100 100 100 100 100 100 100 100 97 97 97 94 94 94 87 90 74 71 74 71 81 90 87 90 94 97 97 97 94 90 84 77 81 94 97 97 97 97 100 100 100
81 97 100 100 100 100 100 100 100 100 100 97 97 84 81 81 81 74 65 61 45 55 71 84 90 87 90 100 97 97 90 90 84 77 81 90 97 94 90 90 94 97 100
65 81 100 100 100 100 100 100 100 100 100 84 84 81 81 71 71 61 55 65 45 32 52 74 84 90 90 90 100 94 94 84 77 74 65 68 90 94 94 90 90 94 100
32 55 90 100 100 100 100 100 100 100 100 90 87 84 90 87 74 48 48 52 42 32 26 42 55 71 81 77 87 87 94 84 19 0 16 39 84 84 87 87 84 94 100
13 29 61 100 100 100 100 100 100 100 100 97 94 94 94 90 81 61 45 39 32 26 13 16 26 52 61 71 71 74 71 55 39 3 0 16 68 77 84 81 77 90 97
23 23 23 52 84 94 100 100 100 100 100 100 100 100 97 90 87 87 65 45 19 16 3 0 6 26 48 48 55 61 45 39 39 13 3 13 55 55 84 81 81 87 90
42 39 32 45 65 74 81 87 100 100 100 100 100 100 97 87 77 87 68 68 26 3 0 0 0 3 16 29 52 26 13 48 29 16 10 19 42 39 52 65 68 90 90
58 42 52 55 61 74 74 81 100 100 100 100 100 97 94 65 39 6 65 77 48 10 3 0 0 0 0 3 3 0 19 26 16 3 10 10 23 19 35 39 58 61 94
52 61 58 68 81 71 97 100 100 100 100 100 97 97 100 81 77 29 45 81 68 32 13 10 0 0 0 0 0 0 0 0 0 0 3 3 16 13 23 23 26 52 74
29 32 39 58 71 77 97 97 100 97 100 100 100 100 97 97 90 45 42 13 16 32 19 3 0 0 0 0 0 0 0 0 0 0 6 3 0 0 0 16 6 10 45
3 3 16 26 35 58 81 97 100 100 100 100 100 97 94 97 97 74 42 35 6 3 6 6 3 0 0 0 0 0 0 0 0 0 0 0 3 0 0 6 3 3 6
3 3 3 10 13 29 55 71 77 97 100 100 100 100 90 100 97 97 65 23 10 6 3 3 3 3 0 0 0 0 0 0 0 0 0 0 0 0 0 13 16 26 23
0 0 0 3 0 3 26 39 55 74 81 84 90 97 87 97 94 94 87 52 19 10 0 0 0 0 0 0 0 0 0 0 0 0 0 0 0 0 0 3 13 35 58
0 0 0 0 0 0 0 19 32 45 61 68 65 65 68 87 87 100 100 77 32 16 13 13 3 3 0 0 0 0 0 0 0 0 0 0 0 0 0 3 3 13 52
0 0 0 0 0 0 0 10 35 42 61 55 61 61 61 68 71 94 97 100 68 71 58 16 3 3 0 0 0 0 0 0 0 0 0 0 0 0 0 0 0 0 26
0 0 0 0 0 0 0 0 16 39 58 61 65 61 58 61 68 77 94 94 87 94 84 52 13 6 3 0 0 0 0 0 0 0 0 0 0 0 0 0 0 0 13
0 0 0 0 0 0 0 0 0 6 32 39 61 74 71 55 55 74 74 87 87 90 74 42 42 10 16 0 0 0 0 0 0 0 0 0 0 0 0 0 0 0 0
0 0 0 0 0 0 0 0 0 3 6 29 58 68 68 77 81 71 74 81 87 87 74 71 55 39 23 0 3 19 0 0 0 0 0 0 0 0 0 0 0 0 0
0 0 0 0 0 0 0 3 10 13 26 32 48 68 74 77 90 84 81 71 68 77 77 61 45 42 29 6 0 3 3 0 3 0 0 0 0 0 0 0 0 0 0
0 0 0 0 0 0 3 6 10 29 29 26 35 55 65 68 84 87 84 77 68 65 65 52 39 35 42 26 10 3 0 0 0 0 0 0 0 0 0 0 0 0 0
0 0 0 0 0 0 0 13 29 32 35 42 45 55 71 68 71 68 84 81 71 61 61 52 42 48 32 26 26 3 0 0 0 0 0 0 0 0 0 0 0 0 0
0 0 0 0 0 0 10 13 23 23 32 42 55 55 61 65 68 61 71 77 77 84 65 58 55 39 29 23 26 6 3 0 0 0 0 0 0 0 0 0 0 0 0

GEFSSE_con_cape1000_036.txt.gz
Probability
97 84 100 100 100 100 100 100 100 100 100 94 94 90 81 81 77 81 71 81 74 81 90 90 94 97 97 97 97 100 100 100 100 100 100 100 100 100 100 100 100 100 100
94 97 100 100 100 100 100 100 100 100 100 100 97 90 94 94 90 87 84 81 74 77 87 90 90 97 97 97 94 97 100 97 100 100 100 100 100 100 100 100 100 97 100
97 100 100 100 100 100 100 100 100 100 100 100 100 100 94 94 90 87 87 84 74 77 81 87 94 97 90 94 94 90 87 87 94 100 100 97 100 100 100 100 100 97 97
97 97 100 100 100 100 100 100 97 100 97 97 97 97 90 87 81 71 74 81 81 77 81 84 90 90 90 90 84 87 81 84 90 97 94 94 90 94 100 100 100 100 97
97 97 100 100 100 100 100 100 100 100 97 97 94 94 87 84 71 74 71 74 68 68 71 84 87 84 84 87 81 81 74 84 94 94 90 90 87 97 100 100 97 100 100
97 100 100 100 100 100 100 100 100 100 97 97 97 87 84 81 71 61 58 58 48 52 68 74 74 81 77 71 81 77 81 87 94 84 81 87 94 94 97 97 97 90 100
94 100 100 100 100 100 100 100 100 97 97 97 90 74 68 71 65 55 52 48 29 32 42 55 74 77 74 71 61 68 84 90 94 65 77 84 87 94 90 87 84 84 94
87 100 100 100 100 100 100 100 100 100 100 94 90 81 77 74 68 58 52 45 35 19 23 29 48 55 58 61 58 71 74 87 74 55 71 55 94 94 87 81 84 90 87
42 94 100 100 100 100 100 100 100 100 100 100 94 87 90 87 81 68 55 35 32 13 13 10 23 42 45 55 52 65 61 81 65 45 32 42 84 68 61 74 84 84 94
10 32 94 100 100 100 100 100 100 100 100 100 100 97 97 97 94 94 65 55 32 16 3 3 6 26 42 48 61 65 71 58 13 13 6 55 84 58 42 55 77 87 94
19 16 26 48 74 90 97 100 100 100 100 100 100 100 100 97 90 94 87 87 55 29 6 3 6 19 29 48 81 87 65 0 23 10 16 84 81 42 32 42 65 77 94
35 32 26 26 45 55 68 94 100 100 100 100 100 100 100 77 81 90 94 100 81 42 26 10 6 19 19 0 32 84 0 3 6 26 29 94 77 48 26 32 45 61 90
13 19 19 26 26 39 58 84 90 97 97 97 90 87 77 68 61 61 65 97 81 45 13 3 3 0 0 0 0 0 0 0 3 3 23 87 68 35 16 23 26 48 65
6 3 6 6 13 23 39 48 81 90 90 90 84 74 68 58 39 16 32 45 52 35 6 0 0 0 0 0 0 0 0 0 0 3 6 77 48 23 16 13 6 16 58
3 3 3 3 3 3 16 35 35 55 74 74 71 74 71 61 48 29 19 23 42 39 26 16 3 0 0 0 0 0 0 0 0 3 0 71 42 23 19 23 13 6 19
0 0 0 0 0 0 0 10 19 26 42 58 58 68 74 71 52 52 13 23 23 26 16 6 0 0 0 0 0 0 0 0 0 0 0 16 45 23 10 26 26 13 13
0 0 0 0 0 0 0 10 10 13 19 32 39 45 48 52 55 45 42 16 26 13 3 0 0 0 0 0 0 0 0 0 0 0 0 0 0 13 13 26 29 45 35
0 0 0 0 0 0 0 0 10 16 19 35 39 42 39 39 42 52 61 42 19 10 0 0 3 0 0 0 0 0 0 0 0 0 0 0 0 0 0 23 16 26 52
0 0 0 0 0 0 0 0 10 6 19 29 39 45 39 39 42 52 61 48 35 39 19 10 0 0 0 0 0 0 0 0 0 0 0 0 0 0 0 0 19 23 45
0 0 0 0 0 0 0 0 6 10 16 32 32 52 45 42 42 42 45 35 35 39 26 13 6 3 0 0 0 0 0 0 0 0 0 0 0 0 0 0 0 0 35
0 0 0 0 0 0 0 0 0 0 13 26 42 39 45 48 48 39 48 48 35 42 23 13 6 0 0 0 0 0 0 0 0 0 0 0 0 0 0 0 0 0 0
0 0 0 0 0 0 0 0 0 0 3 13 35 29 42 39 52 52 52 39 35 35 29 10 3 0 0 0 0 0 0 0 0 0 0 0 0 0 0 0 0 0 0
0 0 0 0 0 0 0 0 0 0 6 10 16 39 52 58 61 45 42 35 32 29 13 6 3 0 0 0 0 0 0 0 0 0 0 0 0 0 0 0 0 0 0
0 0 0 0 0 0 0 0 0 0 0 0 6 23 48 48 52 65 61 39 32 39 32 29 16 10 0 0 0 0 0 0 0 0 0 0 0 0 0 0 0 0 0
0 0 0 0 0 0 0 0 0 0 0 0 10 16 29 45 52 65 61 48 52 39 42 32 29 23 3 0 0 0 0 0 0 0 0 0 0 0 0 0 0 0 0
0 0 0 0 0 0 0 0 0 0 0 3 10 16 26 35 42 48 55 55 55 42 32 26 19 16 10 0 0 0 0 0 0 0 0 0 0 0 0 0 0 0 0

GEFSSE_con_cape1000_042.txt.gz
Probability
19 74 100 100 100 100 100 100 100 100 100 100 94 90 90 87 90 87 90 87 94 100 97 97 97 97 97 97 100 100 100 100 100 100 100 100 100 100 100 100 100 100 100
39 90 100 100 100 100 100 100 100 100 100 100 100 94 94 94 94 94 94 87 87 90 97 97 97 97 97 97 97 97 100 100 100 100 100 100 100 100 100 100 100 100 100
68 100 100 100 100 100 100 100 100 100 100 100 100 100 100 97 94 90 87 90 84 90 90 94 97 100 97 97 90 94 90 94 97 97 94 87 97 100 100 100 97 100 100
90 100 100 100 100 100 100 100 100 100 100 100 100 97 97 94 94 84 84 84 77 81 84 94 90 97 97 94 84 77 84 97 94 90 77 81 87 100 100 100 100 100 100
87 100 100 100 100 100 100 100 100 97 97 97 97 97 97 94 77 71 71 71 74 71 77 90 90 94 97 90 74 74 77 87 87 81 61 58 77 97 100 100 100 97 100
87 100 100 100 100 100 100 100 100 100 97 97 97 97 90 87 77 74 71 61 52 58 71 84 84 84 77 84 84 77 74 87 71 45 58 61 81 94 100 100 100 100 100
97 100 100 100 100 100 100 100 100 100 100 97 97 90 84 81 77 68 58 52 39 35 61 77 87 84 81 81 77 77 84 84 39 35 42 45 81 97 94 90 90 97 97
100 100 100 100 100 100 100 100 100 100 100 100 100 94 84 77 77 68 61 52 45 35 35 52 74 77 81 77 87 81 90 74 39 32 19 35 94 94 84 90 90 90 94
81 84 94 100 100 100 100 100 100 100 100 100 100 100 97 90 84 81 74 55 48 42 32 35 55 68 77 81 97 90 94 71 0 6 13 39 100 87 81 87 94 94 94
26 45 58 71 74 90 97 100 100 100 100 100 100 100 100 100 100 90 87 74 58 48 26 29 42 48 74 81 90 94 90 39 0 0 0 48 97 81 77 77 94 90 94
6 10 16 23 29 39 71 94 100 100 100 100 100 100 100 94 94 90 94 90 74 71 52 35 35 39 68 77 87 100 77 0 0 0 0 90 94 84 71 71 81 90 90
0 0 0 10 10 16 32 52 65 81 87 90 100 100 100 90 77 84 84 100 97 94 81 61 48 48 45 10 13 97 23 0 0 0 0 100 94 68 52 71 74 84 90
0 0 0 0 0 3 3 6 39 52 61 71 71 77 77 68 45 58 32 81 100 94 68 52 39 13 0 0 0 0 0 0 0 0 0 97 90 81 48 48 65 77 87
0 0 0 0 0 0 0 0 6 13 23 42 65 65 48 45 29 16 6 10 42 61 29 3 0 0 0 0 0 0 0 0 0 0 0 97 90 84 58 45 48 71 77
0 0 0 0 0 0 0 0 0 6 13 10 13 19 29 26 23 10 3 0 26 13 0 0 0 0 0 0 0 0 0 0 0 0 0 97 97 87 71 45 35 55 71
0 0 0 0 0 0 0 0 0 0 0 3 3 6 16 19 10 6 0 0 3 3 0 0 0 0 0 0 0 0 0 0 0 0 0 42 94 81 81 68 48 29 55
0 0 0 0 0 0 0 0 0 0 0 0 0 3 6 6 6 3 3 0 3 3 0 0 0 0 0 0 0 0 0 0 0 0 0 3 16 45 65 94 87 52 39
0 0 0 0 0 0 0 0 0 0 0 0 0 0 0 3 6 3 3 0 0 3 6 0 0 0 0 0 0 0 0 0 0 0 0 0 0 0 13 81 90 94 77
0 0 0 0 0 0 0 0 0 0 0 0 0 3 6 3 6 10 6 0 0 0 0 0 0 0 0 0 0 0 0 0 0 0 0 0 0 0 0 3 58 55 87
0 0 0 0 0 0 0 0 0 0 0 0 0 3 13 10 3 3 3 6 0 0 0 0 0 0 0 0 0 0 0 0 0 0 0 0 0 0 0 0 0 3 61
0 0 0 0 0 0 0 0 0 0 0 0 0 0 0 6 6 3 3 3 0 0 0 0 0 0 0 0 0 0 0 0 0 0 0 0 0 0 0 0 0 0 0
0 0 0 0 0 0 0 0 0 0 0 0 0 0 0 0 3 6 3 3 0 0 0 0 0 0 0 0 0 0 0 0 0 0 0 0 0 0 0 0 0 0 0
0 0 0 0 0 0 0 0 0 0 0 0 0 0 0 0 0 3 6 6 0 0 0 0 0 0 0 0 0 0 0 0 0 0 0 0 0 0 0 0 0 0 0
0 0 0 0 0 0 0 0 0 0 0 0 0 0 0 0 0 0 3 6 3 0 0 0 0 0 0 0 0 0 0 0 0 0 0 0 0 0 0 0 0 0 0
0 0 0 0 0 0 0 0 0 0 0 0 0 0 0 0 0 0 0 0 10 3 3 3 0 0 0 0 0 0 0 0 0 0 0 0 0 0 0 0 0 0 0
0 0 0 0 0 0 0 0 0 0 0 0 0 0 0 0 0 0 0 3 3 6 3 3 6 0 0 0 0 0 0 0 0 0 0 0 0 0 0 0 0 0 0

GEFSSE_con_cape1000_048.txt.gz
Probability
0 19 100 100 100 100 100 100 100 100 100 97 94 94 94 94 87 87 87 94 90 94 97 97 97 94 97 97 100 100 100 100 100 100 100 100 100 100 100 100 100 100 100
10 58 100 100 100 100 100 100 100 100 100 97 94 94 94 94 90 90 90 94 94 90 94 97 97 94 94 94 100 100 100 100 100 100 100 100 100 100 100 100 100 100 100
29 90 100 100 100 100 100 100 100 100 100 100 97 94 97 94 94 90 90 87 90 87 94 94 100 97 94 90 94 94 94 100 100 97 97 97 97 100 100 100 97 97 97
65 100 100 100 100 100 100 100 100 100 100 100 100 100 97 94 94 87 77 81 90 90 94 94 97 100 94 94 90 90 90 97 100 94 77 81 90 100 100 100 97 97 97
81 100 100 100 100 100 100 100 100 100 100 100 100 97 97 90 87 74 61 71 74 87 84 90 97 94 94 90 90 87 90 90 97 74 58 58 68 90 97 97 97 97 100
84 100 100 100 100 100 100 100 100 100 97 97 97 97 97 90 74 61 55 61 65 74 74 81 94 87 90 90 84 87 81 81 71 42 45 55 61 90 97 97 97 94 94
71 97 100 100 100 100 100 100 100 100 100 97 97 97 97 90 84 65 68 65 48 48 58 74 90 90 81 84 87 90 90 87 23 26 35 45 71 97 90 87 90 100 90
42 61 68 87 100 100 100 100 100 100 100 100 100 100 100 94 87 84 71 65 55 48 45 61 74 90 90 90 81 81 94 74 45 35 29 29 77 84 84 90 90 94 94
19 23 39 48 58 74 90 100 100 100 100 100 100 100 100 97 97 87 81 77 65 58 45 45 55 68 81 81 77 74 90 94 0 6 16 29 84 90 84 81 94 90 90
3 0 3 10 13 23 29 58 87 94 100 100 100 97 97 97 100 100 97 90 74 65 58 45 48 55 65 77 71 77 90 42 0 3 0 26 97 87 81 81 94 94 94
0 0 3 3 3 6 6 16 35 58 71 90 97 94 97 97 97 97 100 100 97 87 74 61 42 48 52 68 74 84 81 0 0 0 0 45 94 90 81 74 87 94 94
0 0 0 0 0 0 3 3 3 10 16 26 48 71 84 87 84 90 90 100 100 100 97 90 81 48 39 6 3 39 0 0 0 0 0 61 94 77 81 74 77 84 97
0 0 0 0 0 0 0 0 0 3 3 6 13 26 35 55 58 74 61 61 77 90 87 87 84 42 3 0 0 0 0 0 0 0 0 55 97 81 65 61 71 81 87
0 0 0 0 0 0 0 0 0 0 0 3 10 13 10 19 23 26 32 29 26 32 32 45 26 10 0 0 0 0 0 0 0 0 0 32 100 87 61 48 65 68 71
0 0 0 0 0 0 0 0 0 0 0 3 3 6 6 13 23 23 16 16 13 3 3 6 3 0 0 0 0 0 0 0 0 0 0 6 97 100 81 58 52 58 74
0 0 0 0 0 0 0 0 0 0 0 0 0 3 3 6 10 10 16 10 6 0 3 3 6 0 0 0 0 0 0 0 0 0 0 0 55 100 100 81 55 58 68
0 0 0 0 0 0 0 0 0 0 0 0 0 0 0 3 3 10 3 10 6 0 0 0 3 0 0 0 0 0 0 0 0 0 0 0 0 58 94 97 87 81 71
0 0 0 0 0 0 0 0 0 0 0 0 0 0 0 0 0 0 6 3 3 0 0 0 0 0 0 0 0 0 0 0 0 0 0 0 0 0 26 94 97 90 74
0 0 0 0 0 0 0 0 0 0 0 0 0 0 0 0 0 0 0 3 3 3 0 0 0 0 0 0 0 0 0 0 0 0 0 0 0 0 0 6 81 77 87
0 0 0 0 0 0 0 0 0 0 0 0 0 0 0 0 0 0 0 0 3 0 0 0 0 0 0 0 0 0 0 0 0 0 0 0 0 0 0 0 10 13 68
0 0 0 0 0 0 0 0 0 0 0 0 0 0 0 0 0 0 0 3 0 0 0 0 0 0 0 0 0 0 0 0 0 0 0 0 0 0 0 0 0 0 0
0 0 0 0 0 0 0 0 0 0 0 0 0 0 0 0 0 0 0 0 3 0 0 0 0 0 0 0 0 0 0 0 0 0 0 0 0 0 0 0 0 0 0
0 0 0 0 0 0 0 0 0 0 0 0 0 0 0 0 0 0 0 0 0 0 0 0 0 0 0 0 0 0 0 0 0 0 0 0 0 0 0 0 0 0 0
0 0 0 0 0 0 0 0 0 0 0 0 0 0 0 0 0 0 0 0 0 0 3 0 0 0 0 0 0 0 0 0 0 0 0 0 0 0 0 0 0 0 0
0 0 0 0 0 0 0 0 0 0 0 0 0 0 0 0 0 0 0 0 0 0 3 3 0 0 0 0 0 0 0 0 0 0 0 0 0 0 0 0 0 0 0
0 0 0 0 0 0 0 0 0 0 0 0 0 0 0 0 0 0 0 0 0 0 0 3 0 0 0 0 0 0 0 0 0 0 0 0 0 0 0 0 0 0 0

GEFSSE_con_cape1000_054.txt.gz
Probability
6 35 100 87 100 100 100 100 100 100 97 97 97 97 97 87 87 87 90 94 90 97 100 97 97 94 94 100 100 100 100 100 100 100 100 100 100 100 100 97 100 97 100
6 32 100 97 100 100 100 100 100 100 100 97 94 97 90 90 87 87 84 87 87 84 87 94 97 94 94 94 100 100 100 100 97 100 100 100 100 100 100 100 97 97 94
3 35 84 100 100 94 94 97 100 100 100 97 94 94 94 90 90 84 84 87 87 87 87 90 94 94 94 90 94 94 100 100 94 97 97 97 97 100 97 94 94 94 94
13 26 52 100 100 100 100 100 97 97 100 100 100 94 97 97 90 87 74 81 81 84 81 87 87 84 87 84 90 90 84 87 97 97 97 87 97 97 97 90 90 94 94
10 32 77 97 100 100 100 100 100 100 100 100 100 100 94 94 84 77 61 65 65 77 84 84 90 87 87 81 74 84 84 84 97 87 77 90 97 87 87 90 94 90 97
16 39 74 90 90 94 97 97 100 100 100 100 100 100 100 97 84 71 65 55 61 68 71 77 90 87 84 81 81 77 77 81 77 61 74 81 84 84 81 77 84 87 94
26 26 45 77 84 94 94 94 97 100 100 100 100 100 100 97 94 90 65 55 65 58 58 65 81 81 74 71 74 71 71 71 65 52 58 68 81 81 71 74 87 87 87
13 16 13 26 32 45 65 77 90 94 100 100 100 100 100 100 97 94 87 68 65 68 48 48 58 74 77 74 71 71 65 71 45 23 42 58 81 71 71 81 81 81 90
6 3 0 0 3 19 23 35 48 58 68 71 84 94 94 94 94 97 97 94 74 71 65 48 48 52 55 65 58 61 55 74 68 48 10 39 77 74 68 74 87 84 84
0 0 0 0 0 6 13 10 19 32 32 48 58 81 81 77 74 87 94 100 97 81 71 55 42 45 45 55 55 48 65 52 42 52 29 45 77 81 68 68 77 84 81
0 3 3 3 0 0 0 3 6 10 16 13 23 48 65 71 61 74 74 84 97 97 94 84 58 42 42 48 55 45 48 29 48 52 48 55 68 61 65 58 74 84 77
0 0 3 3 3 0 0 0 16 6 10 16 19 39 48 58 55 52 55 74 81 90 94 87 87 58 35 35 48 23 16 26 48 45 45 42 58 61 55 65 61 65 74
0 0 0 0 0 3 6 10 10 10 10 10 16 23 29 45 65 58 68 71 81 81 90 84 87 87 35 13 6 0 3 6 6 19 42 61 55 71 58 52 61 61 68
0 0 0 0 0 0 3 3 10 10 10 10 16 19 19 39 48 52 65 65 68 84 90 84 94 65 35 10 0 0 0 6 3 19 68 42 52 74 65 58 52 52 61
0 0 0 0 0 0 0 0 0 0 3 3 10 13 19 23 29 45 42 65 71 68 77 81 65 42 48 13 10 0 0 0 0 10 32 48 48 71 81 55 55 52 61
0 0 0 0 0 0 0 0 0 0 0 3 3 3 6 19 19 32 42 61 61 71 74 77 71 52 42 35 16 6 0 0 0 3 10 45 26 71 97 77 65 58 71
0 0 0 0 0 0 0 0 0 0 0 0 0 0 0 3 13 26 32 52 48 48 45 65 48 55 45 35 26 6 6 0 0 0 3 13 29 19 77 97 87 74 74
0 0 0 0 0 0 0 0 0 0 0 0 0 0 0 0 0 10 29 35 48 58 58 55 58 68 52 45 39 26 3 13 0 0 0 3 16 16 29 84 94 90 77
0 0 0 0 0 0 0 0 0 0 0 0 0 0 0 0 3 3 19 23 29 55 55 48 45 58 58 55 26 26 10 10 3 0 0 0 0 26 29 61 84 90 90
0 0 0 0 0 0 0 0 0 0 0 0 0 0 0 0 0 3 6 6 10 48 65 61 65 68 71 65 23 3 10 6 6 10 3 0 0 0 10 35 55 19 77
0 0 0 0 0 0 0 0 0 0 0 0 0 0 0 0 0 0 3 3 13 26 35 45 61 52 68 58 35 23 16 6 6 3 3 6 3 3 16 26 23 29 45
0 0 0 0 0 0 0 0 0 0 0 0 0 0 0 0 3 0 3 3 6 32 23 23 48 58 48 52 29 23 13 10 0 0 3 13 0 3 10 6 6 13 13
0 0 0 0 0 0 0 0 0 0 0 0 0 3 0 3 0 0 3 3 3 6 19 29 32 42 52 52 48 32 6 10 10 3 3 6 6 16 6 6 3 0 3
0 0 0 0 0 0 0 0 0 0 0 0 0 3 3 3 3 0 0 3 0 0 3 3 10 32 42 45 32 32 13 6 0 0 0 0 3 10 16 3 3 3 0
0 0 0 0 0 0 0 0 0 0 0 0 0 0 0 3 0 0 0 0 3 3 3 3 3 13 26 39 45 29 16 13 3 6 0 0 0 0 6 16 23 13 6
0 0 0 0 0 0 0 0 0 0 0 0 0 0 0 0 0 0 0 0 3 0 3 3 6 13 16 23 32 39 23 10 0 0 0 3 3 3 6 6 23 32 26

GEFSSE_con_cape1000_060.txt.gz
Probability
74 71 97 97 90 87 87 90 90 87 84 87 90 90 87 84 81 81 84 81 81 87 90 97 97 94 94 94 97 100 100 100 100 100 100 97 100 100 97 97 100 100 100
77 71 97 97 94 84 94 97 97 90 94 97 94 94 94 84 87 81 81 81 81 77 77 90 94 97 94 94 97 97 100 97 97 97 97 100 100 100 100 100 100 97 100
71 77 94 100 81 77 77 84 90 87 94 94 87 87 87 81 77 71 68 77 77 74 74 81 90 90 94 87 90 94 90 94 94 100 100 100 100 97 94 97 94 90 94
55 61 77 97 84 81 65 68 74 81 81 84 77 87 84 77 81 81 68 77 81 74 71 71 74 81 71 74 74 94 90 100 94 97 100 97 97 97 90 87 90 94 90
61 71 84 90 90 81 74 68 71 71 68 84 84 84 87 84 84 77 71 68 68 65 68 74 71 74 77 77 68 71 81 84 94 100 90 94 81 81 81 84 84 84 84
45 68 74 81 77 71 71 61 65 68 77 84 87 90 94 94 90 84 71 68 58 61 58 65 77 77 74 68 71 71 77 81 94 77 74 87 87 74 65 68 77 77 77
29 35 32 48 45 39 52 48 48 52 74 74 81 87 90 90 87 84 90 81 74 61 65 61 61 65 74 74 74 71 77 87 77 58 74 84 81 74 68 71 68 68 68
13 16 10 29 23 19 26 23 23 32 32 45 52 58 74 77 81 87 87 90 84 71 65 48 55 61 71 81 77 71 68 87 52 39 55 71 77 77 65 61 74 71 71
0 0 3 3 6 10 10 10 19 23 26 26 29 45 58 77 81 81 87 87 97 94 77 74 65 55 52 74 77 74 74 90 68 52 39 58 81 71 61 65 74 71 68
0 0 3 3 6 0 10 13 19 10 10 16 26 35 42 55 71 77 77 84 87 77 87 81 81 61 48 65 81 84 90 71 16 6 35 58 81 71 68 65 68 81 65
0 0 6 3 3 3 0 0 6 6 16 13 23 29 35 32 39 61 65 71 71 74 74 81 81 87 77 77 90 94 87 13 6 13 26 81 81 71 61 52 58 68 65
0 0 0 3 0 0 0 3 3 0 3 16 19 16 23 26 19 19 35 45 52 65 68 68 74 77 81 32 55 94 29 0 3 16 45 94 87 65 52 48 52 58 61
0 0 0 0 0 3 3 3 3 3 3 0 6 16 16 16 26 26 29 35 42 45 42 52 58 52 48 10 6 10 0 0 3 3 45 94 94 87 65 52 55 45 58
0 0 0 0 0 0 0 0 0 3 3 3 13 10 13 19 23 23 29 29 23 19 26 32 35 29 29 13 6 0 0 0 0 16 32 97 97 94 81 61 48 65 55
0 0 0 0 0 0 0 0 0 0 0 3 6 3 6 10 10 13 16 29 26 13 10 13 19 19 10 13 3 0 0 0 0 16 29 90 97 97 94 74 65 55 61
0 0 0 0 0 0 0 0 0 0 0 0 0 0 3 6 6 6 6 19 10 13 6 13 13 10 10 6 3 0 0 0 3 16 3 71 97 97 100 97 81 68 77
0 0 0 0 0 0 0 0 0 0 0 0 0 0 0 0 0 0 10 10 13 10 10 13 10 10 6 6 13 6 0 0 0 3 13 6 10 87 97 100 100 94 84
0 0 0 0 0 0 0 0 0 0 0 0 0 0 0 0 0 0 3 6 10 10 6 6 13 16 10 10 0 0 3 0 0 0 3 3 3 0 48 97 100 97 97
0 0 0 0 0 0 0 0 0 0 0 0 0 0 0 0 0 0 0 3 3 10 6 3 10 13 6 6 6 0 3 3 3 0 0 0 3 3 0 13 94 94 100
0 0 0 0 0 0 0 0 0 0 0 0 0 0 0 0 0 0 0 0 0 6 6 6 3 13 13 10 3 0 6 3 3 0 0 0 0 0 0 0 0 32 90
0 0 0 0 0 0 0 0 0 0 0 0 0 3 3 3 3 0 0 0 0 0 0 6 6 0 10 10 3 3 3 3 0 0 0 0 0 0 3 3 0 0 0
0 0 0 0 0 0 0 0 0 0 0 0 0 0 3 6 3 0 0 0 0 3 0 0 3 3 3 0 0 0 0 0 0 0 0 0 0 0 0 6 0 0 0
0 0 0 0 0 0 0 0 0 0 0 0 0 3 0 0 3 3 3 0 0 0 0 0 0 0 3 3 0 0 0 0 0 0 0 0 0 0 0 0 3 3 3
0 0 0 0 0 0 0 0 0 0 0 0 0 0 0 0 0 0 0 0 0 0 0 0 0 0 0 0 0 0 0 0 0 0 0 0 0 0 0 0 0 0 3
0 0 0 0 0 0 0 0 0 0 0 0 0 0 0 0 0 0 0 0 0 0 0 0 0 0 0 0 0 0 0 0 0 0 0 0 0 0 0 0 0 0 0
0 0 0 0 0 0 0 0 0 0 0 0 0 0 0 0 0 0 0 0 0 0 0 0 0 0 0 0 0 0 0 0 0 0 0 0 0 0 0 0 0 0 0